[[{"header":{"parameterUnit":"m.s-1","parameterCategory":1,"la1":30.2991,"la2":30.254,"lo1":-89.0895,"lo2":-89.0444,"dy":0.0017,"dx":0.0017,"nx":28,"ny":28,"refTime":"2025-07-04T03:00:00:Z","depth":0,"parameterNumber":2,"parameterNumberName":"U-component_of_WINDS"},"data":[0,0,0,0,0,0,0,0,0,0,0,0,0,0,0,0,0,0,0,0,0,0,0,0,0,0,0,0,0,0,0,0,0,0,0,0,0,0,0,0,0,0,0,0,0,0,0,0,0,0,0,0,0,0,0,0,0,0,1.6395,1.6396,0,1.6462,1.6462,1.6463,1.6462,1.6461,1.646,1.6459,1.6525,1.6528,1.653,0,0,0,0,0,0,0,0,0,0,0,0,0,1.6267,1.6269,1.6395,1.6396,1.6397,1.6461,1.6462,1.6463,1.6462,1.6461,1.646,1.6459,1.6524,1.6527,1.6531,0,0,0,0,0,0,0,0,0,0,0,0,0,1.6327,1.627,1.6395,1.6404,1.6405,1.6461,1.6462,1.6463,1.6462,1.6461,1.646,1.6458,1.6523,1.6527,1.6531,1.6581,0,0,1.6543,1.6544,0,0,0,0,0,0,0,0,1.6323,1.6331,1.6402,1.6403,1.6405,1.6452,1.6441,1.6503,1.6463,1.6441,1.6459,1.6458,1.6502,1.6507,1.6523,1.6584,1.6587,1.6543,1.6545,1.6547,1.6548,0,0,0,0,0,0,0,1.6319,1.6328,1.6421,1.6403,1.6405,1.6405,1.6412,1.6453,1.6478,1.6442,1.6443,1.6451,1.6502,1.6519,1.6524,1.6588,1.6543,1.6546,1.6549,1.655,1.6697,1.6699,0,0,0,0,0,0,1.6313,1.6325,1.6419,1.6423,1.636,1.6408,1.6416,1.6438,1.6477,1.6482,1.6452,1.645,1.6513,1.652,1.6527,1.659,1.6547,1.6551,1.6553,1.6696,1.6698,1.67,0,0,0,0,0,0,1.631,1.6322,1.6416,1.6374,1.6386,1.6412,1.6437,1.644,1.6457,1.6484,1.6489,1.6464,1.6512,1.6521,1.6569,1.6592,1.6552,1.6556,1.6694,1.6696,1.6699,1.6716,0,0,0,0,0,0,1.6307,1.6321,1.634,1.6375,1.6389,1.6457,1.6438,1.6443,1.6464,1.6463,1.6497,1.6501,1.6512,1.6563,1.6572,1.6597,1.6559,1.6692,1.6695,1.6698,1.6713,1.6718,1.6723,0,0,0,0,0,1.6302,1.6341,1.6341,1.6352,1.6413,1.6459,1.6467,1.6478,1.6466,1.6486,1.6504,1.65,1.6588,1.6568,1.6578,1.6604,1.6691,1.6694,1.6698,1.6711,1.6717,1.6723,0,0,0,0,0,0,1.6307,1.6346,1.6346,1.6397,1.6425,1.6458,1.6483,1.6484,1.6516,1.6513,1.6526,1.6534,1.6582,1.6598,1.6574,1.6656,1.6638,1.6644,1.6644,1.665,1.6655,1.665,1.6562,0,0,0,0,0,1.6314,1.6348,1.638,1.6422,1.6436,1.6458,1.6478,1.6485,1.6514,1.6525,1.6546,1.6574,1.6608,1.663,1.6663,1.6716,1.6724,1.6739,1.6744,1.6748,1.6753,1.6784,1.6791,1.6711,1.6711,1.6711,0,0,1.6329,1.6354,1.6374,1.6424,1.6446,1.6481,1.6467,1.6504,1.6531,1.653,1.6577,1.6594,1.6626,1.6677,1.67,1.6692,1.6777,1.6752,1.6755,1.6758,1.6788,1.6796,1.6802,1.6714,1.6713,1.6713,0,0,1.6374,1.6396,1.6435,1.6458,1.6493,1.6507,1.6516,1.6551,1.6562,1.661,1.6611,1.6642,1.67,1.6724,1.6743,1.68,1.6799,1.681,1.6835,1.6866,1.6872,1.6878,1.6899,1.6907,1.6815,1.6815,1.6815,0,1.6387,1.6441,1.6454,1.6492,1.6515,1.6518,1.6557,1.6579,1.6622,1.6637,1.6627,1.6702,1.6723,1.6781,1.6795,1.681,1.6822,1.6806,1.687,1.6876,1.6882,1.6902,1.691,1.6816,1.6816,1.6816,1.6816,0,1.6457,1.6494,1.6521,1.6564,1.6589,1.6628,1.6648,1.6672,1.6677,1.6693,1.6742,1.6769,1.6808,1.6822,1.6827,1.6881,1.6875,1.6867,1.6849,1.689,1.691,1.6918,1.6818,1.6818,1.6817,1.6817,0,0,1.6504,1.6557,1.6567,1.6587,1.6627,1.6656,1.6695,1.6735,1.6756,1.6786,1.682,1.6871,1.6865,1.6887,1.6895,1.6922,1.6967,1.6911,1.6912,1.6921,1.703,1.7036,1.7045,1.6967,1.6968,1.697,1.7028,0,1.6554,1.6625,1.664,1.6701,1.6736,1.6741,1.6776,1.6804,1.6821,1.6853,1.6871,1.6907,1.6896,1.691,1.6936,1.6956,1.6989,1.6952,1.6999,1.7,1.6991,1.7055,1.706,1.7114,1.7036,1.7037,1.7038,0,1.6621,1.6655,1.6721,1.6758,1.6773,1.6804,1.6843,1.6874,1.6907,1.6917,1.6943,1.6949,1.6991,1.6971,1.703,1.7004,1.7024,1.7037,1.704,1.7045,1.7022,1.7062,1.7131,1.7139,1.705,1.7049,1.7048,0,1.6651,1.6713,1.6761,1.6778,1.6822,1.6844,1.6864,1.6895,1.6919,1.6953,1.6969,1.7006,1.7027,1.7057,1.7073,1.7057,1.7131,1.7112,1.7141,1.7141,1.7156,1.7155,1.723,1.7169,1.7169,1.7168,1.7168,0,1.6705,1.6745,1.6775,1.6804,1.685,1.6867,1.6911,1.693,1.6959,1.6993,1.6999,1.703,1.705,1.7084,1.7097,1.7145,1.7154,1.7163,1.7166,1.7163,1.7162,1.7177,1.7173,1.7171,1.717,1.717,1.7169,0,1.6746,1.6767,1.682,1.6859,1.6869,1.6901,1.6934,1.6964,1.6981,1.7024,1.7034,1.7062,1.7103,1.7122,1.7172,1.7181,1.7236,1.7236,1.7225,1.7226,1.7255,1.7252,1.7342,1.7355,1.7284,1.7285,1.7286,0,1.6779,1.681,1.6853,1.6877,1.6897,1.6935,1.696,1.6978,1.7004,1.7045,1.707,1.7111,1.7145,1.7211,1.7235,1.7274,1.7276,1.7305,1.7282,1.7278,1.7278,1.7276,1.728,1.7309,1.731,1.731,1.7311,0,1.6836,1.6846,1.6882,1.6923,1.6953,1.6985,1.7017,1.7036,1.7059,1.7088,1.7131,1.7158,1.7211,1.7252,1.7294,1.7314,1.7317,1.7318,1.7327,1.7324,1.7317,1.7322,1.7237,1.7316,1.7315,1.7315,1.7314,1.7314,1.6875,1.6904,1.6939,1.698,1.7006,1.7037,1.7067,1.7089,1.7125,1.717,1.7179,1.7225,1.7259,1.7315,1.7337,1.7374,1.7367,1.738,1.7383,1.7386,1.7388,1.7311,1.7381,1.7381,1.7381,1.7381,1.7381,0,1.6933,1.6957,1.6994,1.704,1.7072,1.7073,1.7109,1.7136,1.7177,1.7209,1.7244,1.7294,1.7335,1.7364,1.7406,1.743,1.7432,1.744,1.7439,1.7444,1.7391,1.738,1.7438,1.7438,1.7438,1.7438,1.7438,1.7438,1.6967,1.7017,1.7031,1.7095,1.7118,1.7164,1.7185,1.7213,1.724,1.7296,1.7331,1.735,1.7381,1.7426,1.7464,1.7472,1.7487,1.7495,1.7503,1.7453,1.7447,1.7441,1.7431,1.7498,1.7499,1.7552,1.7553,1.7553]},{"header":{"parameterUnit":"m.s-1","parameterCategory":1,"la1":30.2991,"la2":30.254,"lo1":-89.0895,"lo2":-89.0444,"dy":0.0017,"dx":0.0017,"nx":28,"ny":28,"refTime":"2025-07-04T03:00:00:Z","depth":0,"parameterNumber":3,"parameterNumberName":"V-component_of_WINDS"},"data":[0,0,0,0,0,0,0,0,0,0,0,0,0,0,0,0,0,0,0,0,0,0,0,0,0,0,0,0,0,0,0,0,0,0,0,0,0,0,0,0,0,0,0,0,0,0,0,0,0,0,0,0,0,0,0,0,0,0,-2.6981,-2.6982,0,-2.7056,-2.7057,-2.7058,-2.7049,-2.7048,-2.7047,-2.7046,-2.712,-2.7123,-2.7126,0,0,0,0,0,0,0,0,0,0,0,0,0,-2.6828,-2.6831,-2.6981,-2.6982,-2.6983,-2.7056,-2.7057,-2.7058,-2.7049,-2.7048,-2.7047,-2.7045,-2.7119,-2.7123,-2.7126,0,0,0,0,0,0,0,0,0,0,0,0,0,-2.6898,-2.6832,-2.6981,-2.6987,-2.6989,-2.7056,-2.7057,-2.7058,-2.705,-2.7048,-2.7046,-2.7044,-2.7118,-2.7122,-2.7127,-2.7191,0,0,-2.7141,-2.7143,0,0,0,0,0,0,0,0,-2.6894,-2.6904,-2.6986,-2.6987,-2.6989,-2.7041,-2.703,-2.7103,-2.705,-2.7027,-2.7046,-2.7044,-2.7095,-2.7102,-2.7119,-2.7195,-2.7198,-2.7141,-2.7144,-2.7146,-2.7148,0,0,0,0,0,0,0,-2.6889,-2.69,-2.701,-2.6987,-2.6989,-2.6986,-2.6994,-2.7044,-2.707,-2.7028,-2.7028,-2.7037,-2.7096,-2.7115,-2.7121,-2.7199,-2.7141,-2.7145,-2.7148,-2.715,-2.733,-2.7332,0,0,0,0,0,0,-2.6883,-2.6896,-2.7008,-2.7013,-2.6936,-2.699,-2.6999,-2.7026,-2.7069,-2.7074,-2.7039,-2.7036,-2.7108,-2.7116,-2.7124,-2.7202,-2.7146,-2.7151,-2.7153,-2.7328,-2.7331,-2.7333,0,0,0,0,0,0,-2.688,-2.6893,-2.7005,-2.6955,-2.6969,-2.6995,-2.7025,-2.7029,-2.7048,-2.7077,-2.7081,-2.7054,-2.7107,-2.7117,-2.7175,-2.7204,-2.7153,-2.7157,-2.7326,-2.7329,-2.7332,-2.7358,0,0,0,0,0,0,-2.6876,-2.6892,-2.6917,-2.6955,-2.6971,-2.7055,-2.7027,-2.7031,-2.7056,-2.7054,-2.7092,-2.7097,-2.7106,-2.7168,-2.7179,-2.7209,-2.716,-2.7324,-2.7328,-2.7331,-2.7355,-2.7361,-2.7367,0,0,0,0,0,-2.687,-2.6921,-2.6918,-2.6932,-2.7003,-2.7057,-2.7066,-2.7077,-2.7059,-2.7084,-2.7103,-2.7096,-2.7199,-2.7174,-2.7186,-2.7219,-2.7322,-2.7326,-2.7331,-2.7352,-2.736,-2.7367,0,0,0,0,0,0,-2.6884,-2.6926,-2.6924,-2.6988,-2.7019,-2.7056,-2.7087,-2.7085,-2.7121,-2.7118,-2.7129,-2.7137,-2.7195,-2.7213,-2.7184,-2.7283,-2.7258,-2.7265,-2.7269,-2.7278,-2.7284,-2.7278,-2.7164,0,0,0,0,0,-2.6895,-2.6936,-2.697,-2.7024,-2.704,-2.7061,-2.7085,-2.709,-2.7122,-2.7135,-2.7158,-2.7189,-2.7228,-2.7254,-2.7292,-2.7357,-2.7365,-2.7386,-2.7392,-2.7397,-2.7403,-2.7439,-2.7448,-2.7348,-2.7348,-2.7348,0,0,-2.6918,-2.6945,-2.697,-2.7027,-2.7052,-2.7093,-2.7072,-2.7117,-2.7147,-2.7142,-2.7197,-2.7216,-2.7251,-2.7312,-2.7341,-2.7329,-2.7433,-2.7403,-2.7407,-2.741,-2.7445,-2.7454,-2.7463,-2.7351,-2.7351,-2.735,0,0,-2.698,-2.7005,-2.7053,-2.7078,-2.7116,-2.713,-2.7142,-2.7179,-2.7191,-2.7247,-2.7244,-2.728,-2.7348,-2.7374,-2.7395,-2.7468,-2.7463,-2.748,-2.7513,-2.7548,-2.7556,-2.7563,-2.7588,-2.7597,-2.7486,-2.7486,-2.7486,0,-2.7002,-2.7065,-2.7077,-2.7123,-2.7148,-2.7146,-2.7194,-2.7218,-2.7266,-2.7283,-2.7269,-2.7355,-2.7378,-2.7446,-2.7464,-2.7482,-2.7495,-2.7475,-2.7554,-2.7561,-2.7568,-2.7592,-2.7602,-2.7488,-2.7488,-2.7488,-2.7487,0,-2.7091,-2.7135,-2.7169,-2.7217,-2.7245,-2.7292,-2.731,-2.7338,-2.7341,-2.7357,-2.7414,-2.7443,-2.7486,-2.7503,-2.7506,-2.7571,-2.7563,-2.7552,-2.7526,-2.7579,-2.7602,-2.7612,-2.7491,-2.749,-2.7489,-2.7489,0,0,-2.7163,-2.7217,-2.723,-2.7251,-2.7294,-2.7327,-2.7374,-2.7418,-2.7441,-2.7475,-2.7514,-2.7572,-2.7562,-2.7587,-2.7593,-2.7623,-2.7679,-2.7608,-2.7609,-2.762,-2.7752,-2.7759,-2.777,-2.7676,-2.7678,-2.768,-2.7749,0,-2.7228,-2.7311,-2.7324,-2.7396,-2.7437,-2.7436,-2.7477,-2.7507,-2.7523,-2.7559,-2.7576,-2.7617,-2.7601,-2.7616,-2.7647,-2.7666,-2.7705,-2.7661,-2.7712,-2.7713,-2.7702,-2.7782,-2.779,-2.7854,-2.7758,-2.7759,-2.7761,0,-2.7316,-2.7353,-2.743,-2.7467,-2.7485,-2.7521,-2.7562,-2.7597,-2.7631,-2.7641,-2.7669,-2.7672,-2.772,-2.7693,-2.7759,-2.7728,-2.775,-2.7763,-2.7765,-2.777,-2.7739,-2.7788,-2.7875,-2.7884,-2.7775,-2.7774,-2.7773,0,-2.7359,-2.7429,-2.7484,-2.7503,-2.7548,-2.7573,-2.7593,-2.7626,-2.7651,-2.7687,-2.7704,-2.7745,-2.7767,-2.7799,-2.7812,-2.7792,-2.7877,-2.7852,-2.7885,-2.7885,-2.7902,-2.7901,-2.7993,-2.7918,-2.7918,-2.7917,-2.7917,0,-2.7431,-2.7478,-2.7504,-2.7538,-2.7591,-2.7605,-2.7656,-2.7675,-2.7704,-2.7741,-2.7743,-2.7778,-2.7794,-2.7831,-2.7842,-2.7895,-2.7905,-2.7913,-2.7916,-2.7913,-2.7912,-2.7926,-2.7922,-2.792,-2.7919,-2.7919,-2.7918,0,-2.7488,-2.7508,-2.7568,-2.7606,-2.7617,-2.7654,-2.7687,-2.7719,-2.7735,-2.7782,-2.7794,-2.7819,-2.7863,-2.788,-2.7933,-2.7941,-2.8001,-2.8,-2.799,-2.799,-2.8023,-2.8019,-2.8126,-2.8141,-2.8057,-2.8058,-2.8059,0,-2.7532,-2.7568,-2.7611,-2.7636,-2.7657,-2.7698,-2.7725,-2.774,-2.7768,-2.781,-2.7837,-2.7881,-2.7917,-2.7987,-2.801,-2.8051,-2.805,-2.8085,-2.8056,-2.8052,-2.805,-2.8047,-2.8051,-2.809,-2.8091,-2.8091,-2.8092,0,-2.7607,-2.7615,-2.7654,-2.7697,-2.7729,-2.7762,-2.7795,-2.7816,-2.7836,-2.7867,-2.7912,-2.794,-2.7996,-2.8039,-2.8081,-2.8101,-2.81,-2.8101,-2.8111,-2.8108,-2.81,-2.8104,-2.8003,-2.8098,-2.8098,-2.8097,-2.8097,-2.8097,-2.7658,-2.7691,-2.7726,-2.7769,-2.7796,-2.7827,-2.786,-2.7881,-2.7919,-2.7966,-2.7972,-2.8021,-2.8054,-2.8111,-2.8133,-2.8171,-2.8161,-2.8176,-2.8179,-2.8182,-2.8184,-2.8095,-2.8179,-2.8178,-2.8178,-2.8178,-2.8178,0,-2.7733,-2.7756,-2.7796,-2.7843,-2.7877,-2.7874,-2.7911,-2.7939,-2.7982,-2.8014,-2.805,-2.8102,-2.8144,-2.8171,-2.8214,-2.8239,-2.8239,-2.8249,-2.8247,-2.8252,-2.819,-2.8177,-2.8248,-2.8248,-2.8248,-2.8248,-2.8248,-2.8248,-2.7776,-2.7831,-2.7843,-2.7911,-2.7934,-2.7982,-2.8003,-2.8032,-2.8057,-2.8116,-2.8152,-2.8169,-2.8199,-2.8244,-2.8283,-2.8289,-2.8304,-2.8315,-2.8321,-2.8263,-2.8256,-2.8249,-2.8237,-2.8319,-2.8319,-2.8379,-2.8379,-2.838]}]]